Terug naar catalogus

STARLINK-32689

ActiefCommunicatieVLEO
NORAD 62440·PAYLOAD·🇺🇸 United States

Gelanceerd Dec 29, 2024 vanaf Vandenberg Space Force Base

Loading…

Volgende Passages (komende 24 uur)

TLE

VersSource: CelesTrak SupGP

Epoch: Sep 15, 2026, 02:04 UTC

1 62440C 24251J   26258.08659722 -.00054586  00000+0 -16130-2 0  2582
2 62440  53.1571 172.7776 0001338  86.3072 336.9305 15.34413942    14

Volg STARLINK-32689 in realtime met AllMySat

Download on the App Store